Location: Newark
(52.4787°S, 179.0532°W)
Time: 06:19:38
(UTC+00:00)

Transit 2A Rocket - Pass Details

Date: 26 November 2019
Orbit: 594 x 909 km, 66.7° (Epoch: 12 December)

Event Time Altitude Azimuth Distance (km) Brightness Sun altitude
Rises 03:46:54 0° 220° (SW) 3,574 8.8 34.0°
Reaches altitude 10° 03:49:28 10° 219° (SW) 2,627 8.2 33.6°
Maximum altitude 03:55:40 81° 131° (SE) 920 5.9 32.7°
Drops below altitude 10° 04:01:33 10° 43° (NE) 2,500 7.4 31.8°
Sets 04:03:56 0° 41° (NE) 3,391 8.0 31.4°
